DW5310 Weather Reports


Display with metric or nautical units.
time (UTC)temp
F
wind
direction
speed
MPH
gust
MPH
rain 1hr
in
rain 24hr
in
rain mn
in
humidity
%
barometer
mb
20260505173006 56 127 0.0 6.0 0.00 0.00 0.00 85 1015.5
20260505172507 55 168 0.0 6.0 0.00 0.00 0.00 85 1015.5
20260505172006 56 133 0.0 2.0 0.00 0.00 0.00 85 1015.5
20260505171506 56 151 0.0 2.0 0.00 0.00 0.00 85 1014.5
20260505171006 56 206 0.0 0.0 0.00 0.00 0.00 85 1014.5
20260505170506 56 238 0.0 0.0 0.00 0.00 0.00 86 1014.5
20260505170007 56 149 0.0 0.0 0.00 0.00 0.00 86 1015.5
20260505165506 55 185 0.0 2.0 0.00 0.00 0.00 86 1015.5
20260505165006 55 137 0.0 2.0 0.00 0.00 0.00 86 1015.5
20260505164506 55 140 0.0 0.0 0.00 0.00 0.00 87 1014.5
20260505164007 55 187 0.0 0.0 0.00 0.00 0.00 87 1014.5
20260505163506 55 156 0.0 2.0 0.00 0.00 0.00 87 1014.5
20260505163008 55 145 0.0 2.0 0.00 0.00 0.00 87 1014.5
20260505162506 55 204 1.0 2.0 0.00 0.00 0.00 87 1014.5
20260505162007 55 199 0.0 7.0 0.00 0.00 0.00 88 1014.5
20260505161507 54 162 0.0 7.0 0.00 0.00 0.00 88 1014.5
20260505161006 55 135 0.0 7.0 0.00 0.00 0.00 88 1014.5
20260505160506 54 179 0.0 5.0 0.00 0.00 0.00 88 1014.5
20260505153006 53 213 0.0 0.0 0.00 0.00 0.00 89 1014.5
20260505152506 53 170 0.0 0.0 0.00 0.00 0.00 89 1014.5
20260505152006 53 144 0.0 5.0 0.00 0.00 0.00 89 1014.5
20260505151506 53 179 1.0 5.0 0.00 0.00 0.00 89 1014.5
20260505150506 53 177 1.0 5.0 0.00 0.00 0.00 88 1014.5
20260505140506 53 192 0.0 5.0 0.00 0.00 0.00 89 1014.5
20260505124006 53 125 0.0 0.0 0.00 0.00 0.00 86 1014.5
20260505123506 53 125 0.0 0.0 0.00 0.00 0.00 86 1014.5
20260505122006 53 148 0.0 0.0 0.00 0.00 0.00 85 1014.5
20260505121006 53 138 0.0 0.0 0.00 0.00 0.00 86 1014.5
20260505120506 53 138 0.0 0.0 0.00 0.00 0.00 86 1014.5
20260505120006 53 138 0.0 0.0 0.00 0.00 0.00 86 1013.5
20260505115506 53 153 0.0 2.0 0.00 0.00 0.00 86 1013.5
20260505115006 53 192 0.0 3.0 0.00 0.00 0.00 86 1013.5
20260505114506 53 148 0.0 3.0 0.00 0.00 0.00 86 1014.5
20260505113506 53 192 0.0 0.0 0.00 0.00 0.00 86 1014.5
20260505113006 53 192 0.0 0.0 0.00 0.00 0.00 86 1014.5
20260505112506 53 215 0.0 0.0 0.00 0.00 0.00 85 1014.5
20260505112006 53 125 0.0 0.0 0.00 0.00 0.00 85 1014.5
20260505111506 53 305 0.0 0.0 0.00 0.00 0.00 85 1013.5
20260505111005 53 192 0.0 0.0 0.00 0.00 0.00 85 1013.5
20260505110506 53 137 0.0 0.0 0.00 0.00 0.00 85 1013.5
20260505102006 53 148 0.0 0.0 0.00 0.00 0.00 85 1013.5
20260505101506 53 148 0.0 0.0 0.00 0.00 0.00 85 1013.5
20260505101006 53 192 0.0 0.0 0.00 0.00 0.00 85 1013.5
20260505100505 53 238 0.0 0.0 0.00 0.00 0.00 85 1013.5
20260505100006 53 238 0.0 0.0 0.00 0.00 0.00 85 1013.5
20260505095505 53 238 0.0 0.0 0.00 0.00 0.00 85 1013.5
20260505095006 53 215 0.0 0.0 0.00 0.00 0.00 85 1013.5
20260505094505 53 170 0.0 7.0 0.00 0.00 0.00 84 1013.5
20260505094006 53 153 1.0 7.0 0.00 0.00 0.00 84 1013.5
20260505093505 53 153 0.0 7.0 0.00 0.00 0.00 84 1013.5
20260505093006 53 215 0.0 0.0 0.00 0.00 0.00 84 1012.5
20260505092505 53 215 0.0 0.0 0.00 0.00 0.00 84 1012.5
20260505092005 53 215 0.0 0.0 0.00 0.00 0.00 84 1012.5
20260505091505 53 215 0.0 0.0 0.00 0.00 0.00 83 1012.5
20260505091006 53 220 0.0 0.0 0.00 0.00 0.00 83 1012.5
20260505090506 53 215 0.0 0.0 0.00 0.00 0.00 83 1012.5
20260505090006 53 211 0.0 0.0 0.00 0.00 0.00 83 1012.5
20260505085505 53 238 0.0 0.0 0.00 0.00 0.00 82 1012.5
20260505085006 53 215 0.0 0.0 0.00 0.00 0.00 83 1012.5
20260505084005 54 238 0.0 5.0 0.00 0.00 0.00 82 1012.5
20260505083006 54 225 1.0 5.0 0.00 0.00 0.00 81 1012.5
20260505082506 54 219 0.0 5.0 0.00 0.00 0.00 81 1012.5
20260505082006 54 243 0.0 2.0 0.00 0.00 0.00 81 1012.5
20260505081505 54 215 0.0 2.0 0.00 0.00 0.00 80 1012.5
20260505081005 54 215 0.0 0.0 0.00 0.00 0.00 80 1012.5
20260505080506 54 215 0.0 0.0 0.00 0.00 0.00 80 1012.5
20260505080005 55 305 0.0 3.0 0.00 0.00 0.00 80 1012.5
20260505075505 55 233 0.0 3.0 0.00 0.00 0.00 79 1012.5
20260505075006 55 282 0.0 5.0 0.00 0.00 0.00 79 1012.5
20260505074505 55 217 0.0 5.0 0.00 0.00 0.00 80 1011.5
20260505073505 55 227 0.0 5.0 0.00 0.00 0.00 80 1011.5
20260505073005 55 215 1.0 5.0 0.00 0.00 0.00 80 1011.5
20260505072005 55 239 0.0 5.0 0.00 0.00 0.00 79 1011.5
20260505071506 56 215 0.0 5.0 0.00 0.00 0.00 79 1012.5
20260505071005 56 215 2.0 6.0 0.00 0.00 0.00 79 1012.5
20260505070506 56 200 1.0 6.0 0.00 0.00 0.00 78 1012.5
20260505065005 57 215 1.0 5.0 0.00 0.00 0.00 78 1012.5
20260505064005 57 215 1.0 5.0 0.00 0.00 0.00 77 1012.5
20260505063505 57 229 0.0 5.0 0.00 0.00 0.00 75 1012.5
20260505062505 58 198 0.0 2.0 0.00 0.00 0.00 76 1012.5
20260505061505 58 223 0.0 5.0 0.00 0.00 0.00 74 1012.5
20260505061005 59 220 0.0 5.0 0.00 0.00 0.00 75 1012.5
20260505060505 59 215 0.0 3.0 0.00 0.00 0.00 73 1012.5
20260505060005 59 240 0.0 5.0 0.00 0.00 0.00 73 1011.5
20260505055505 59 237 2.0 5.0 0.00 0.00 0.00 73 1011.5
20260505055006 60 236 0.0 5.0 0.00 0.00 0.00 72 1011.5
20260505054004 60 215 0.0 3.0 0.00 0.00 0.00 72 1011.5
20260505053504 61 215 0.0 3.0 0.00 0.00 0.00 71 1011.5
20260505052505 62 260 0.0 2.0 0.00 0.00 0.00 71 1011.5
20260505051505 62 238 0.0 0.0 0.00 0.00 0.00 71 1011.5
20260505050506 63 237 0.0 0.0 0.00 0.00 0.00 70 1011.5
20260505041505 65 215 0.0 2.0 0.00 0.00 0.00 71 1010.5
20260505041005 65 221 0.0 2.0 0.00 0.00 0.00 70 1010.5
20260505040505 65 218 0.0 2.0 0.00 0.00 0.00 70 1010.5
20260505035504 66 223 0.0 3.0 0.00 0.00 0.00 70 1010.5
20260505035008 66 215 0.0 3.0 0.00 0.00 0.00 70 1010.5
20260505034505 66 215 0.0 0.0 0.00 0.00 0.00 70 1010.5
20260505034006 66 228 0.0 0.0 0.00 0.00 0.00 69 1010.5
20260505033504 66 198 0.0 0.0 0.00 0.00 0.00 69 1010.5
20260505032505 67 215 0.0 0.0 0.00 0.00 0.00 69 1010.5
20260505032005 67 215 0.0 8.0 0.00 0.00 0.00 68 1010.5
20260505031504 67 215 0.0 8.0 0.00 0.00 0.00 68 1010.5
20260505031004 67 145 1.0 6.0 0.00 0.00 0.00 68 1010.5
20260505030005 67 215 0.0 8.0 0.00 0.00 0.00 67 1009.5
20260505025505 68 129 1.0 6.0 0.00 0.00 0.00 67 1009.5
20260505025005 68 188 0.0 6.0 0.00 0.00 0.00 67 1009.5
20260505024006 68 200 0.0 2.0 0.00 0.00 0.00 66 1010.5
20260505023504 68 192 0.0 5.0 0.00 0.00 0.00 67 1010.5
20260505023005 68 185 1.0 5.0 0.00 0.00 0.00 66 1009.5
20260505022504 68 248 0.0 0.0 0.00 0.00 0.00 65 1009.5
20260505022004 68 237 0.0 0.0 0.00 0.00 0.00 65 1009.5
20260505021505 68 224 0.0 0.0 0.00 0.00 0.00 65 1009.5
20260505021004 68 216 0.0 0.0 0.00 0.00 0.00 65 1009.5
20260505015504 69 224 0.0 3.0 0.00 0.00 0.00 64 1009.5
20260505014504 69 193 0.0 7.0 0.00 0.00 0.00 63 1010.5
20260505013004 69 150 2.0 9.0 0.00 0.00 0.00 63 1010.5
20260505012504 69 151 0.0 7.0 0.00 0.00 0.00 63 1010.5
20260505012004 69 242 0.0 5.0 0.00 0.00 0.00 63 1010.5
20260505011504 69 191 3.0 5.0 0.00 0.00 0.00 63 1010.5
20260505011004 69 226 1.0 7.0 0.00 0.00 0.00 62 1010.5
20260505010504 70 206 1.0 7.0 0.00 0.00 0.00 62 1010.5
20260505005504 70 140 1.0 6.0 0.00 0.00 0.00 62 1010.5
20260505005004 70 182 1.0 8.0 0.00 0.00 0.00 62 1010.5
20260505004504 70 165 0.0 8.0 0.00 0.00 0.00 61 1010.5
20260505003504 70 221 1.0 8.0 0.00 0.00 0.00 61 1010.5
20260505002505 70 170 1.0 3.0 0.00 0.00 0.00 60 1010.5
20260505001505 71 203 1.0 8.0 0.00 0.00 0.00 61 1010.5
20260505001004 70 151 1.0 5.0 0.00 0.00 0.00 61 1010.5
20260505000504 70 136 0.0 2.0 0.00 0.00 0.00 60 1010.5
20260505000004 70 258 0.0 5.0 0.00 0.00 0.00 60 1010.5
20260504235505 70 192 0.0 6.0 0.00 0.00 0.00 60 1010.5
20260504235004 70 136 1.0 8.0 0.00 0.00 0.00 59 1010.5
20260504234504 71 144 3.0 8.0 0.00 0.00 0.00 60 1010.5
20260504234004 70 299 0.0 5.0 0.00 0.00 0.00 60 1010.5
20260504233504 70 220 0.0 8.0 0.00 0.00 0.00 59 1010.5
20260504233004 70 178 1.0 8.0 0.00 0.00 0.00 59 1010.5
20260504232504 71 193 1.0 8.0 0.00 0.00 0.00 59 1010.5
20260504232004 71 222 1.0 8.0 0.00 0.00 0.00 59 1010.5
20260504231504 70 179 1.0 8.0 0.00 0.00 0.00 59 1010.5
20260504231004 70 136 4.0 8.0 0.00 0.00 0.00 59 1010.5
20260504230504 70 143 3.0 8.0 0.00 0.00 0.00 59 1010.5
20260504230004 70 221 0.0 6.0 0.00 0.00 0.00 59 1010.5
20260504225504 70 179 1.0 6.0 0.00 0.00 0.00 59 1010.5
20260504225004 70 123 2.0 6.0 0.00 0.00 0.00 59 1010.5
20260504224504 70 187 0.0 6.0 0.00 0.00 0.00 59 1010.5
20260504224004 70 222 0.0 7.0 0.00 0.00 0.00 59 1010.5
20260504223504 70 111 2.0 9.0 0.00 0.00 0.00 60 1010.5
20260504223004 70 188 3.0 9.0 0.00 0.00 0.00 60 1010.5
20260504222504 70 242 0.0 2.0 0.00 0.00 0.00 60 1010.5
20260504222005 70 257 0.0 2.0 0.00 0.00 0.00 60 1010.5
20260504221504 70 224 0.0 7.0 0.00 0.00 0.00 61 1010.5
20260504221004 69 236 1.0 7.0 0.00 0.00 0.00 62 1010.5
20260504220504 69 207 0.0 7.0 0.00 0.00 0.00 61 1010.5
20260504215504 69 198 0.0 8.0 0.00 0.00 0.00 61 1011.5
20260504215004 69 204 0.0 6.0 0.00 0.00 0.00 62 1011.5
20260504214504 68 215 1.0 2.0 0.00 0.00 0.00 64 1011.5
20260504214004 68 215 0.0 7.0 0.00 0.00 0.00 62 1011.5
20260504213503 68 222 2.0 8.0 0.00 0.00 0.00 63 1011.5
20260504212504 68 176 1.0 5.0 0.00 0.00 0.00 65 1011.5
20260504212004 67 257 0.0 2.0 0.00 0.00 0.00 64 1011.5
20260504211504 68 203 0.0 2.0 0.00 0.00 0.00 65 1012.5
20260504211004 67 211 0.0 2.0 0.00 0.00 0.00 67 1012.5
20260504210504 66 246 0.0 7.0 0.00 0.00 0.00 66 1012.5
20260504210004 66 155 0.0 7.0 0.00 0.00 0.00 69 1012.5
20260504205004 65 159 4.0 9.0 0.00 0.00 0.00 67 1012.5
20260504204503 65 198 2.0 12.0 0.00 0.00 0.00 67 1012.5
20260504203004 65 139 3.0 12.0 0.00 0.00 0.00 68 1012.5
20260504202505 65 216 3.0 12.0 0.00 0.00 0.00 69 1012.5
20260504202003 65 219 1.0 5.0 0.00 0.00 0.00 71 1012.5
20260504201504 64 250 0.0 6.0 0.00 0.00 0.00 70 1012.5
20260504200503 64 249 0.0 7.0 0.00 0.00 0.00 71 1012.5
20260504200004 63 191 1.0 7.0 0.00 0.00 0.00 71 1012.5
20260504195504 63 183 1.0 8.0 0.00 0.00 0.00 71 1012.5
20260504195004 63 267 3.0 8.0 0.00 0.00 0.00 72 1012.5
20260504194503 63 218 1.0 7.0 0.00 0.00 0.00 72 1012.5
20260504194004 63 218 0.0 9.0 0.00 0.00 0.00 73 1012.5
20260504193503 62 228 0.0 12.0 0.00 0.00 0.00 73 1012.5
20260504193007 62 181 6.0 12.0 0.00 0.00 0.00 73 1012.5
20260504192006 61 139 3.0 8.0 0.00 0.00 0.00 74 1012.5
20260504191507 61 290 0.0 10.0 0.00 0.00 0.00 74 1012.5
20260504191007 61 148 5.0 10.0 0.00 0.00 0.00 75 1012.5
20260504190007 60 221 2.0 8.0 0.00 0.00 0.00 75 1012.5
20260504185507 59 180 1.0 8.0 0.00 0.00 0.00 76 1012.5
20260504185007 60 215 1.0 8.0 0.00 0.00 0.00 76 1012.5
20260504184507 59 207 0.0 7.0 0.00 0.00 0.00 78 1012.5
20260504184007 59 188 1.0 7.0 0.00 0.00 0.00 78 1012.5
20260504183507 59 195 3.0 10.0 0.00 0.00 0.00 78 1012.5
20260504182507 58 105 0.0 6.0 0.00 0.00 0.00 79 1012.5
20260504182006 58 188 2.0 6.0 0.00 0.00 0.00 79 1012.5
20260504181506 58 242 1.0 6.0 0.00 0.00 0.00 79 1011.5
20260504180506 58 252 0.0 3.0 0.00 0.00 0.00 80 1011.5
20260504180006 57 249 0.0 8.0 0.00 0.00 0.00 80 1012.5
20260504175506 57 217 2.0 8.0 0.00 0.00 0.00 80 1012.5
20260504175006 57 214 1.0 12.0 0.00 0.00 0.00 81 1012.5
20260504174507 57 204 3.0 12.0 0.00 0.00 0.00 81 1012.5
20260504174006 57 197 1.0 6.0 0.00 0.00 0.00 81 1012.5
20260504173506 57 215 0.0 6.0 0.00 0.00 0.00 82 1012.5